| time (UTC) | temp F | wind direction | speed knots | gust knots | rain 1hr in | rain 24hr in | rain mn in | humidity % | barometer mb |
| 20260503050055 | 34 | 0 | 0.0 | 0.0 | 0.00 | 0.00 | 0.00 | 76 | 1013.9 |
| 20260503045555 | 34 | 0 | 0.0 | 0.0 | 0.00 | 0.00 | 0.00 | 76 | 1013.9 |
| 20260503045054 | 35 | 0 | 0.0 | 0.0 | 0.00 | 0.00 | 0.00 | 76 | 1013.9 |
| 20260503044558 | 35 | 0 | 0.0 | 0.0 | 0.00 | 0.00 | 0.00 | 75 | 1013.8 |
| 20260503044058 | 35 | 0 | 0.0 | 0.0 | 0.00 | 0.00 | 0.00 | 75 | 1013.8 |
| 20260503043554 | 35 | 0 | 0.0 | 0.0 | 0.00 | 0.00 | 0.00 | 75 | 1013.8 |
| 20260503043103 | 35 | 0 | 0.0 | 0.0 | 0.00 | 0.00 | 0.00 | 75 | 1013.8 |
| 20260503042557 | 35 | 0 | 0.0 | 0.0 | 0.00 | 0.00 | 0.00 | 75 | 1013.8 |
| 20260503042057 | 35 | 0 | 0.0 | 0.0 | 0.00 | 0.00 | 0.00 | 74 | 1013.9 |
| 20260503041557 | 35 | 0 | 0.0 | 0.0 | 0.00 | 0.00 | 0.00 | 76 | 1013.9 |
| 20260503041058 | 35 | 0 | 0.0 | 0.0 | 0.00 | 0.00 | 0.00 | 77 | 1014.0 |
| 20260503040559 | 35 | 0 | 0.0 | 0.0 | 0.00 | 0.00 | 0.00 | 78 | 1014.0 |
| 20260503040114 | 35 | 0 | 0.0 | 0.0 | 0.00 | 0.00 | 0.00 | 78 | 1014.1 |
| 20260503035555 | 35 | 0 | 0.0 | 0.0 | 0.00 | 0.00 | 0.00 | 78 | 1014.1 |
| 20260503035055 | 36 | 0 | 0.0 | 0.0 | 0.00 | 0.00 | 0.00 | 76 | 1014.1 |
| 20260503034559 | 36 | 0 | 0.0 | 0.0 | 0.00 | 0.00 | 0.00 | 77 | 1014.2 |
| 20260503034055 | 36 | 0 | 0.0 | 0.0 | 0.00 | 0.00 | 0.00 | 77 | 1014.1 |
| 20260503033554 | 36 | 0 | 0.0 | 0.0 | 0.00 | 0.00 | 0.00 | 77 | 1014.1 |
| 20260503033058 | 36 | 0 | 0.0 | 0.0 | 0.00 | 0.00 | 0.00 | 77 | 1014.1 |
| 20260503032558 | 36 | 0 | 0.0 | 0.0 | 0.00 | 0.00 | 0.00 | 76 | 1014.2 |
| 20260503032058 | 36 | 0 | 0.0 | 0.0 | 0.00 | 0.00 | 0.00 | 75 | 1014.2 |
| 20260503031605 | 36 | 0 | 0.0 | 0.0 | 0.00 | 0.00 | 0.00 | 76 | 1014.3 |
| 20260503031058 | 37 | 0 | 0.0 | 0.0 | 0.00 | 0.00 | 0.00 | 76 | 1014.2 |
| 20260503030558 | 37 | 0 | 0.0 | 0.0 | 0.00 | 0.00 | 0.00 | 75 | 1014.2 |
| 20260503030058 | 37 | 0 | 0.0 | 0.0 | 0.00 | 0.00 | 0.00 | 74 | 1014.3 |
| 20260503025559 | 37 | 0 | 0.0 | 0.0 | 0.00 | 0.00 | 0.00 | 73 | 1014.3 |
| 20260503025055 | 38 | 0 | 0.0 | 1.7 | 0.00 | 0.00 | 0.00 | 72 | 1014.3 |
| 20260503024554 | 38 | 0 | 0.0 | 1.7 | 0.00 | 0.00 | 0.00 | 73 | 1014.3 |
| 20260503024057 | 38 | 163 | 0.0 | 1.7 | 0.00 | 0.00 | 0.00 | 70 | 1014.3 |
| 20260503023555 | 39 | 0 | 0.0 | 1.7 | 0.00 | 0.00 | 0.00 | 68 | 1014.4 |
| 20260503023102 | 39 | 0 | 0.0 | 2.6 | 0.00 | 0.00 | 0.00 | 68 | 1014.3 |
| 20260503022555 | 39 | 165 | 0.0 | 3.5 | 0.00 | 0.00 | 0.00 | 67 | 1014.3 |
| 20260503022056 | 39 | 0 | 0.0 | 3.5 | 0.00 | 0.00 | 0.00 | 68 | 1014.4 |
| 20260503021603 | 39 | 0 | 0.0 | 1.7 | 0.00 | 0.00 | 0.00 | 67 | 1014.3 |
| 20260503021055 | 39 | 0 | 0.0 | 0.9 | 0.00 | 0.00 | 0.00 | 68 | 1014.4 |
| 20260503020555 | 39 | 0 | 0.0 | 1.7 | 0.00 | 0.00 | 0.00 | 66 | 1014.3 |
| 20260503020059 | 39 | 0 | 0.0 | 2.6 | 0.00 | 0.00 | 0.00 | 65 | 1014.2 |
| 20260503015556 | 40 | 182 | 0.0 | 2.6 | 0.00 | 0.00 | 0.00 | 64 | 1014.2 |
| 20260503015054 | 40 | 0 | 0.0 | 1.7 | 0.00 | 0.00 | 0.00 | 64 | 1014.2 |
| 20260503014610 | 40 | 205 | 0.0 | 1.7 | 0.00 | 0.00 | 0.00 | 63 | 1014.1 |
| 20260503014054 | 40 | 0 | 0.0 | 0.9 | 0.00 | 0.00 | 0.00 | 64 | 1014.1 |
| 20260503013554 | 40 | 0 | 0.0 | 0.9 | 0.00 | 0.00 | 0.00 | 64 | 1014.1 |
| 20260503013059 | 41 | 0 | 0.0 | 0.9 | 0.00 | 0.00 | 0.00 | 62 | 1014.1 |
| 20260503012555 | 41 | 0 | 0.0 | 0.0 | 0.00 | 0.00 | 0.00 | 61 | 1014.1 |
| 20260503012053 | 41 | 0 | 0.0 | 0.9 | 0.00 | 0.00 | 0.00 | 64 | 1014.1 |
| 20260503011600 | 42 | 0 | 0.0 | 1.7 | 0.00 | 0.00 | 0.00 | 63 | 1014.0 |
| 20260503011055 | 42 | 0 | 0.0 | 1.7 | 0.00 | 0.00 | 0.00 | 59 | 1014.0 |
| 20260503010555 | 43 | 0 | 0.0 | 0.0 | 0.00 | 0.00 | 0.00 | 58 | 1014.0 |
| 20260503010059 | 42 | 0 | 0.0 | 0.0 | 0.00 | 0.00 | 0.00 | 58 | 1014.0 |
| 20260503005555 | 42 | 0 | 0.0 | 0.0 | 0.00 | 0.00 | 0.00 | 58 | 1013.9 |
| 20260503005055 | 43 | 0 | 0.0 | 0.0 | 0.00 | 0.00 | 0.00 | 57 | 1013.9 |
| 20260503004555 | 43 | 0 | 0.0 | 0.0 | 0.00 | 0.00 | 0.00 | 58 | 1013.8 |
| 20260503004057 | 43 | 0 | 0.0 | 0.0 | 0.00 | 0.00 | 0.00 | 58 | 1013.9 |
| 20260503003554 | 44 | 0 | 0.0 | 0.0 | 0.00 | 0.00 | 0.00 | 57 | 1013.8 |
| 20260503003054 | 44 | 0 | 0.0 | 0.0 | 0.00 | 0.00 | 0.00 | 61 | 1013.9 |
| 20260503002555 | 44 | 0 | 0.0 | 0.0 | 0.00 | 0.00 | 0.00 | 60 | 1013.9 |
| 20260503002055 | 44 | 0 | 0.0 | 0.0 | 0.00 | 0.00 | 0.00 | 59 | 1013.8 |
| 20260503001606 | 44 | 0 | 0.0 | 0.0 | 0.00 | 0.00 | 0.00 | 58 | 1013.7 |
| 20260503001054 | 45 | 0 | 0.0 | 0.0 | 0.00 | 0.00 | 0.00 | 56 | 1013.8 |
| 20260503000559 | 44 | 0 | 0.0 | 0.0 | 0.00 | 0.00 | 0.00 | 60 | 1013.7 |
| 20260503000054 | 45 | 0 | 0.0 | 0.0 | 0.00 | 0.00 | 0.00 | 58 | 1013.7 |
| 20260502235554 | 46 | 0 | 0.0 | 3.5 | 0.00 | 0.00 | 0.00 | 56 | 1013.7 |
| 20260502235054 | 46 | 0 | 0.0 | 3.5 | 0.00 | 0.00 | 0.00 | 56 | 1013.7 |
| 20260502234558 | 46 | 331 | 0.0 | 3.5 | 0.00 | 0.00 | 0.00 | 55 | 1013.7 |
| 20260502234055 | 46 | 0 | 0.0 | 5.2 | 0.00 | 0.00 | 0.00 | 58 | 1013.7 |
| 20260502233555 | 46 | 0 | 0.9 | 5.2 | 0.00 | 0.00 | 0.00 | 54 | 1013.7 |
| 20260502233054 | 46 | 29 | 0.0 | 3.5 | 0.00 | 0.00 | 0.00 | 55 | 1013.8 |
| 20260502232557 | 46 | 17 | 0.0 | 3.5 | 0.00 | 0.00 | 0.00 | 54 | 1013.9 |
| 20260502232054 | 46 | 352 | 0.9 | 3.5 | 0.00 | 0.00 | 0.00 | 54 | 1013.9 |
| 20260502231557 | 46 | 360 | 0.9 | 3.5 | 0.00 | 0.00 | 0.00 | 54 | 1013.9 |
| 20260502231055 | 46 | 360 | 0.0 | 3.5 | 0.00 | 0.00 | 0.00 | 53 | 1013.9 |
| 20260502230555 | 46 | 317 | 0.9 | 4.3 | 0.00 | 0.00 | 0.00 | 52 | 1013.9 |
| 20260502230058 | 46 | 346 | 0.9 | 4.3 | 0.00 | 0.00 | 0.00 | 54 | 1014.0 |
| 20260502225554 | 46 | 280 | 0.9 | 5.2 | 0.00 | 0.00 | 0.00 | 53 | 1014.0 |
| 20260502225054 | 46 | 0 | 0.9 | 5.2 | 0.00 | 0.00 | 0.00 | 52 | 1014.0 |
| 20260502224604 | 46 | 329 | 0.9 | 4.3 | 0.00 | 0.00 | 0.00 | 52 | 1014.0 |
| 20260502224054 | 46 | 290 | 0.0 | 6.1 | 0.00 | 0.00 | 0.00 | 53 | 1014.1 |
| 20260502223554 | 46 | 333 | 1.7 | 6.1 | 0.00 | 0.00 | 0.00 | 51 | 1014.1 |
| 20260502223054 | 46 | 258 | 1.7 | 6.1 | 0.00 | 0.00 | 0.00 | 51 | 1014.1 |
| 20260502222553 | 46 | 282 | 0.9 | 3.5 | 0.00 | 0.00 | 0.00 | 52 | 1014.1 |
| 20260502222054 | 47 | 300 | 0.9 | 4.3 | 0.00 | 0.00 | 0.00 | 50 | 1014.1 |
| 20260502221553 | 47 | 283 | 0.9 | 4.3 | 0.00 | 0.00 | 0.00 | 50 | 1014.1 |
| 20260502221055 | 47 | 293 | 0.9 | 4.3 | 0.00 | 0.00 | 0.00 | 50 | 1014.1 |
| 20260502220555 | 47 | 0 | 0.0 | 4.3 | 0.00 | 0.00 | 0.00 | 52 | 1014.0 |
| 20260502220054 | 47 | 289 | 0.9 | 6.1 | 0.00 | 0.00 | 0.00 | 51 | 1014.1 |
| 20260502215555 | 47 | 306 | 0.9 | 6.1 | 0.00 | 0.00 | 0.00 | 53 | 1013.9 |
| 20260502215054 | 47 | 352 | 1.7 | 7.0 | 0.00 | 0.00 | 0.00 | 51 | 1013.9 |
| 20260502214555 | 48 | 348 | 0.9 | 7.0 | 0.00 | 0.00 | 0.00 | 52 | 1013.9 |
| 20260502214054 | 47 | 286 | 0.9 | 4.3 | 0.00 | 0.00 | 0.00 | 51 | 1013.9 |
| 20260502213554 | 47 | 290 | 0.9 | 4.3 | 0.00 | 0.00 | 0.00 | 51 | 1013.9 |
| 20260502213100 | 47 | 297 | 1.7 | 6.1 | 0.00 | 0.00 | 0.00 | 51 | 1013.9 |
| 20260502212554 | 47 | 340 | 1.7 | 7.0 | 0.00 | 0.00 | 0.00 | 50 | 1013.9 |
| 20260502212055 | 47 | 272 | 0.9 | 7.0 | 0.00 | 0.00 | 0.00 | 49 | 1013.9 |
| 20260502211603 | 47 | 242 | 1.7 | 7.0 | 0.00 | 0.00 | 0.00 | 50 | 1013.9 |
| 20260502211057 | 48 | 0 | 1.7 | 7.0 | 0.00 | 0.00 | 0.00 | 49 | 1013.9 |
| 20260502210554 | 48 | 259 | 0.9 | 7.8 | 0.00 | 0.00 | 0.00 | 49 | 1013.9 |
| 20260502210117 | 47 | 348 | 2.6 | 7.8 | 0.00 | 0.00 | 0.00 | 51 | 1014.0 |
| 20260502205555 | 47 | 302 | 0.9 | 5.2 | 0.00 | 0.00 | 0.00 | 50 | 1014.1 |
| 20260502205058 | 46 | 0 | 1.7 | 5.2 | 0.00 | 0.00 | 0.00 | 49 | 1014.1 |
| 20260502204558 | 46 | 286 | 1.7 | 6.1 | 0.00 | 0.00 | 0.00 | 48 | 1014.1 |
| 20260502204054 | 46 | 295 | 1.7 | 7.0 | 0.00 | 0.00 | 0.00 | 48 | 1014.2 |
| 20260502203555 | 47 | 338 | 1.7 | 7.0 | 0.00 | 0.00 | 0.00 | 48 | 1014.2 |
| 20260502203057 | 47 | 268 | 1.7 | 7.0 | 0.00 | 0.00 | 0.00 | 48 | 1014.2 |
| 20260502202554 | 47 | 298 | 2.6 | 7.0 | 0.00 | 0.00 | 0.00 | 52 | 1014.2 |
| 20260502202054 | 47 | 294 | 1.7 | 7.0 | 0.00 | 0.00 | 0.00 | 50 | 1014.3 |
| 20260502201556 | 47 | 290 | 0.9 | 6.1 | 0.00 | 0.00 | 0.00 | 51 | 1014.3 |
| 20260502201055 | 47 | 5 | 1.7 | 7.0 | 0.00 | 0.00 | 0.00 | 49 | 1014.3 |
| 20260502200555 | 47 | 294 | 1.7 | 7.0 | 0.00 | 0.00 | 0.00 | 50 | 1014.3 |
| 20260502200057 | 47 | 312 | 0.9 | 7.0 | 0.00 | 0.00 | 0.00 | 49 | 1014.3 |
| 20260502195555 | 47 | 323 | 1.7 | 7.0 | 0.00 | 0.00 | 0.00 | 51 | 1014.4 |
| 20260502195055 | 47 | 343 | 1.7 | 9.6 | 0.00 | 0.00 | 0.00 | 51 | 1014.5 |
| 20260502194555 | 47 | 278 | 1.7 | 9.6 | 0.00 | 0.00 | 0.00 | 50 | 1014.6 |
| 20260502194058 | 47 | 328 | 1.7 | 7.0 | 0.00 | 0.00 | 0.00 | 47 | 1014.7 |
| 20260502193554 | 48 | 342 | 2.6 | 5.2 | 0.00 | 0.00 | 0.00 | 48 | 1014.6 |
| 20260502193102 | 48 | 331 | 1.7 | 7.0 | 0.00 | 0.00 | 0.00 | 50 | 1014.6 |
| 20260502192555 | 48 | 5 | 1.7 | 7.0 | 0.00 | 0.00 | 0.00 | 51 | 1014.8 |
| 20260502192054 | 47 | 300 | 0.9 | 6.1 | 0.00 | 0.00 | 0.00 | 48 | 1014.7 |
| 20260502191601 | 47 | 17 | 2.6 | 7.0 | 0.00 | 0.00 | 0.00 | 51 | 1015.0 |
| 20260502191055 | 47 | 317 | 2.6 | 7.0 | 0.00 | 0.00 | 0.00 | 49 | 1014.9 |
| 20260502190555 | 47 | 333 | 0.9 | 7.0 | 0.00 | 0.00 | 0.00 | 51 | 1014.9 |
| 20260502190110 | 47 | 355 | 1.7 | 7.0 | 0.00 | 0.00 | 0.00 | 49 | 1015.0 |
| 20260502185554 | 47 | 352 | 2.6 | 7.0 | 0.00 | 0.00 | 0.00 | 51 | 1015.0 |
| 20260502185054 | 47 | 19 | 2.6 | 6.1 | 0.00 | 0.00 | 0.00 | 49 | 1015.0 |
| 20260502184601 | 47 | 306 | 1.7 | 6.1 | 0.00 | 0.00 | 0.00 | 51 | 1015.0 |
| 20260502184054 | 47 | 280 | 0.9 | 7.0 | 0.00 | 0.00 | 0.00 | 49 | 1015.1 |
| 20260502183555 | 46 | 196 | 0.9 | 9.6 | 0.00 | 0.00 | 0.00 | 49 | 1015.1 |
| 20260502183110 | 46 | 327 | 2.6 | 9.6 | 0.00 | 0.00 | 0.00 | 50 | 1015.2 |
| 20260502182555 | 48 | 352 | 2.6 | 8.7 | 0.00 | 0.00 | 0.00 | 50 | 1015.1 |
| 20260502182055 | 48 | 308 | 1.7 | 8.7 | 0.00 | 0.00 | 0.00 | 50 | 1015.1 |
| 20260502181555 | 48 | 360 | 2.6 | 7.8 | 0.00 | 0.00 | 0.00 | 47 | 1015.2 |
| 20260502181055 | 47 | 352 | 2.6 | 7.8 | 0.00 | 0.00 | 0.00 | 53 | 1015.2 |
| 20260502180559 | 46 | 322 | 2.6 | 7.0 | 0.00 | 0.00 | 0.00 | 49 | 1015.4 |
| 20260502164054 | 46 | 13 | 1.7 | 8.7 | 0.00 | 0.00 | 0.00 | 51 | 1015.8 |
| 20260502163554 | 48 | 30 | 0.9 | 8.7 | 0.00 | 0.00 | 0.00 | 54 | 1015.8 |
| 20260502163105 | 47 | 338 | 5.2 | 8.7 | 0.00 | 0.00 | 0.00 | 51 | 1016.0 |
| 20260502162555 | 45 | 325 | 4.3 | 8.7 | 0.00 | 0.00 | 0.00 | 54 | 1015.9 |
| 20260502162053 | 46 | 329 | 1.7 | 7.8 | 0.00 | 0.00 | 0.00 | 53 | 1015.9 |
| 20260502161620 | 44 | 267 | 2.6 | 9.6 | 0.00 | 0.00 | 0.00 | 54 | 1015.9 |
| 20260502161057 | 45 | 321 | 3.5 | 9.6 | 0.00 | 0.00 | 0.00 | 55 | 1016.0 |
| 20260502160554 | 45 | 259 | 1.7 | 7.0 | 0.00 | 0.00 | 0.00 | 52 | 1016.0 |
| 20260502152059 | 45 | 345 | 1.7 | 12.2 | 0.00 | 0.00 | 0.00 | 56 | 1015.7 |
| 20260502151605 | 45 | 331 | 3.5 | 12.2 | 0.00 | 0.00 | 0.00 | 56 | 1015.7 |
| 20260502151055 | 46 | 286 | 4.3 | 12.2 | 0.00 | 0.00 | 0.00 | 54 | 1015.9 |
| 20260502150554 | 45 | 323 | 3.5 | 8.7 | 0.00 | 0.00 | 0.00 | 56 | 1015.7 |
| 20260502130554 | 40 | 344 | 1.7 | 7.8 | 0.00 | 0.00 | 0.00 | 69 | 1015.9 |
| 20260502123554 | 39 | 5 | 1.7 | 8.7 | 0.00 | 0.00 | 0.00 | 71 | 1015.8 |
| 20260502123057 | 38 | 349 | 3.5 | 11.3 | 0.00 | 0.00 | 0.00 | 71 | 1015.7 |
| 20260502122554 | 38 | 338 | 3.5 | 11.3 | 0.00 | 0.00 | 0.00 | 71 | 1015.8 |
| 20260502122055 | 38 | 328 | 4.3 | 11.3 | 0.00 | 0.00 | 0.00 | 71 | 1015.9 |
| 20260502121559 | 38 | 347 | 3.5 | 11.3 | 0.00 | 0.00 | 0.00 | 73 | 1015.8 |
| 20260502121054 | 37 | 345 | 5.2 | 11.3 | 0.00 | 0.00 | 0.00 | 72 | 1015.7 |
| 20260502120556 | 37 | 322 | 2.6 | 7.8 | 0.00 | 0.00 | 0.00 | 73 | 1015.7 |
| 20260502115554 | 36 | 350 | 1.7 | 7.0 | 0.00 | 0.00 | 0.00 | 75 | 1015.7 |
| 20260502115057 | 36 | 338 | 1.7 | 7.0 | 0.00 | 0.00 | 0.00 | 76 | 1015.6 |
| 20260502114557 | 35 | 332 | 1.7 | 4.3 | 0.00 | 0.00 | 0.00 | 77 | 1015.6 |
| 20260502114057 | 35 | 321 | 0.9 | 4.3 | 0.00 | 0.00 | 0.00 | 77 | 1015.7 |
| 20260502113556 | 35 | 316 | 0.9 | 2.6 | 0.00 | 0.00 | 0.00 | 77 | 1015.7 |
| 20260502113057 | 34 | 316 | 0.0 | 3.5 | 0.00 | 0.00 | 0.00 | 77 | 1015.6 |
| 20260502112554 | 34 | 347 | 0.0 | 3.5 | 0.00 | 0.00 | 0.00 | 78 | 1015.6 |
| 20260502112054 | 34 | 347 | 0.0 | 2.6 | 0.00 | 0.00 | 0.00 | 78 | 1015.5 |
| 20260502111606 | 33 | 309 | 0.0 | 1.7 | 0.00 | 0.00 | 0.00 | 78 | 1015.5 |
| 20260502111055 | 33 | 0 | 0.0 | 1.7 | 0.00 | 0.00 | 0.00 | 79 | 1015.5 |
| 20260502110557 | 33 | 0 | 0.0 | 2.6 | 0.00 | 0.00 | 0.00 | 79 | 1015.4 |
| 20260502110058 | 32 | 335 | 0.0 | 2.6 | 0.00 | 0.00 | 0.00 | 79 | 1015.3 |
| 20260502105558 | 32 | 0 | 0.0 | 2.6 | 0.00 | 0.00 | 0.00 | 79 | 1015.1 |
| 20260502105055 | 32 | 335 | 0.0 | 1.7 | 0.00 | 0.00 | 0.00 | 79 | 1015.2 |
| 20260502104557 | 32 | 0 | 0.0 | 1.7 | 0.00 | 0.00 | 0.00 | 79 | 1015.1 |
| 20260502104054 | 32 | 0 | 0.0 | 1.7 | 0.00 | 0.00 | 0.00 | 79 | 1015.1 |
| 20260502103558 | 32 | 0 | 0.0 | 1.7 | 0.00 | 0.00 | 0.00 | 78 | 1015.1 |
| 20260502103057 | 33 | 335 | 0.0 | 1.7 | 0.00 | 0.00 | 0.00 | 78 | 1015.1 |
| 20260502102554 | 33 | 0 | 0.0 | 0.9 | 0.00 | 0.00 | 0.00 | 78 | 1015.1 |
| 20260502102056 | 33 | 0 | 0.0 | 0.9 | 0.00 | 0.00 | 0.00 | 78 | 1015.1 |
| 20260502101556 | 33 | 0 | 0.0 | 0.0 | 0.00 | 0.00 | 0.00 | 77 | 1015.1 |
| 20260502101054 | 33 | 0 | 0.0 | 0.9 | 0.00 | 0.00 | 0.00 | 77 | 1015.1 |
| 20260502100554 | 33 | 0 | 0.0 | 1.7 | 0.00 | 0.00 | 0.00 | 77 | 1015.1 |
| 20260502091053 | 35 | 0 | 0.0 | 0.0 | 0.00 | 0.00 | 0.00 | 74 | 1014.6 |
| 20260502090555 | 36 | 0 | 0.0 | 0.9 | 0.00 | 0.00 | 0.00 | 73 | 1014.7 |
| 20260502090114 | 35 | 0 | 0.0 | 1.7 | 0.00 | 0.00 | 0.00 | 73 | 1014.7 |
| 20260502071057 | 39 | 334 | 0.9 | 3.5 | 0.00 | 0.02 | 0.00 | 69 | 1014.3 |
| 20260502070554 | 39 | 329 | 0.9 | 3.5 | 0.00 | 0.02 | 0.00 | 69 | 1014.3 |
| 20260502070107 | 39 | 329 | 0.9 | 3.5 | 0.00 | 0.02 | 0.00 | 70 | 1014.2 |
| 20260502065556 | 39 | 335 | 0.9 | 3.5 | 0.00 | 0.02 | 0.00 | 69 | 1014.3 |
| 20260502065054 | 39 | 346 | 0.9 | 5.2 | 0.00 | 0.02 | 0.00 | 70 | 1014.3 |
| 20260502064558 | 39 | 329 | 1.7 | 7.0 | 0.00 | 0.02 | 0.00 | 71 | 1014.4 |
| 20260502064055 | 39 | 348 | 1.7 | 7.0 | 0.00 | 0.02 | 0.00 | 70 | 1014.3 |
| 20260502063557 | 39 | 360 | 1.7 | 7.0 | 0.00 | 0.02 | 0.00 | 70 | 1014.4 |
| 20260502063100 | 39 | 355 | 1.7 | 5.2 | 0.00 | 0.02 | 0.00 | 71 | 1014.4 |
| 20260502062554 | 39 | 5 | 2.6 | 5.2 | 0.00 | 0.02 | 0.00 | 73 | 1014.4 |
| 20260502062053 | 39 | 350 | 0.9 | 2.6 | 0.00 | 0.02 | 0.00 | 75 | 1014.5 |
| 20260502061555 | 39 | 0 | 0.0 | 2.6 | 0.00 | 0.02 | 0.00 | 76 | 1014.6 |
| 20260502061056 | 39 | 0 | 0.0 | 2.6 | 0.00 | 0.02 | 0.00 | 75 | 1014.6 |
| 20260502060559 | 39 | 0 | 0.9 | 2.6 | 0.00 | 0.02 | 0.00 | 75 | 1014.6 |
| 20260502060058 | 39 | 350 | 0.0 | 2.6 | 0.00 | 0.02 | 0.00 | 76 | 1014.6 |
| 20260502055557 | 39 | 350 | 0.0 | 2.6 | 0.00 | 0.03 | 0.00 | 76 | 1014.7 |
| 20260502055054 | 39 | 350 | 0.9 | 3.5 | 0.00 | 0.03 | 0.00 | 75 | 1014.7 |
| 20260502054556 | 39 | 0 | 0.9 | 3.5 | 0.00 | 0.03 | 0.00 | 76 | 1014.7 |
| 20260502054054 | 39 | 0 | 0.9 | 5.2 | 0.00 | 0.03 | 0.00 | 75 | 1014.7 |
| 20260502053554 | 39 | 350 | 0.9 | 6.1 | 0.00 | 0.03 | 0.00 | 76 | 1014.7 |
| 20260502053119 | 39 | 355 | 2.6 | 6.1 | 0.00 | 0.03 | 0.00 | 75 | 1014.6 |
| 20260502052556 | 39 | 328 | 0.9 | 3.5 | 0.00 | 0.03 | 0.00 | 77 | 1014.6 |
| 20260502052055 | 39 | 0 | 0.9 | 3.5 | 0.00 | 0.03 | 0.00 | 77 | 1014.6 |
| 20260502051607 | 39 | 0 | 0.9 | 3.5 | 0.00 | 0.03 | 0.00 | 77 | 1014.7 |
| 20260502051058 | 39 | 314 | 0.9 | 2.6 | 0.00 | 0.03 | 0.00 | 77 | 1014.6 |
| 20260502050556 | 39 | 0 | 0.0 | 1.7 | 0.00 | 0.03 | 0.00 | 77 | 1014.6 |